Regional Weather Roundup
Issued by NWS

Home | Current Version | Previous Version | Text Only | Print | Product List | Glossary On
Versions: 1 2 3 4 5 6 7 8 9 10 11 12 13 14 15 16 17 18 19 20 21 22 23 24 25 26 27 28 29 30 31 32 33 34 35 36 37 38 39 40 41 42 43 44 45 46 47 48 49 50
000
ASPQ40 PGUM 191712
RWRPQ
WEATHER ROUNDUP FOR THE MARIANAS AND MICRONESIA
NATIONAL WEATHER SERVICE TIYAN GU
300 AM CHST SUN AUG 20 2017

GUZ001>004-191800-
MARIANA ISLANDS-

CITY           SKY/WX    TMP DP  RH WIND       PRES   REMARKS
GUAM AIRPORT   PTCLDY    81  77  89 E3        29.83S
ANDERSEN AFB   PTCLDY    79  73  83 SE10      29.88S
ROTA AIRPORT   NOT AVBL
TINIAN AP      NOT AVBL
SAIPAN AP      MOCLDY    82  75  78 E7        29.82R

$$

PMZ161-191800-
REPUBLIC OF PALAU-

CITY           SKY/WX    TMP DP  RH WIND       PRES   REMARKS
KOROR AP       LGT RAIN  75  73  94 SW5       29.80F
KOROR WSO      LGT RAIN  75  75 100 E5        29.83F

$$

PMZ171>174-191800-
FEDERATED STATES OF MICRONESIA-

CITY           SKY/WX    TMP DP  RH WIND       PRES   REMARKS
YAP AIRPORT    CLOUDY    79  75  89 VRB2      29.78F
CHUUK AP       CLOUDY    82  79  89 VRB5      29.76F HX  93
POHNPEI AP     MOCLDY    77  75  94 NE3       29.77S
POHNPEI WSO    MOCLDY    75  73  94 SE3       29.78F
KOSRAE AP      NOT AVBL

$$

PMZ181-191800-
REPUBLIC OF THE MARSHALL ISLANDS-

CITY           SKY/WX    TMP DP  RH WIND       PRES   REMARKS
KWAJALEIN AP   PTCLDY    81  75  83 NW9       29.74S
MAJURO AP      NOT AVBL
MAJURO WSO     MOCLDY    81  75  83 VRB3      29.72R

$$




USA.gov is the U.S. government's official web portal to all federal, state and local government web resources and services.